This demonstration page uses our WeatherBlox Daily Observations layout. Learn more.

Left ArrowRight Arrow

Hourly Observations for May 28, 2017

Temp ( °F °C ) Dew Point ( °F °C ) Humidity (%) Winds ( mph kmh ) Pressure ( in mb ) Visibility ( mi km ) Precip ( " mm )
12:53 am 00:53 Clear 80 26.7 18 -7.8 10 10 NW 8 13 29.72 1006 10 16 0.00 0.00
1:53 am 01:53 Clear 79 26.1 18 -7.8 10 10 Calm 29.73 1007 10 16 0.00 0.00
2:53 am 02:53 Clear 82 27.8 14 -10 8 8 E 3 6 29.74 1007 10 16 0.00 0.00
3:53 am 03:53 Mostly Clear 75 23.9 26 -3.3 16 16 N 6 9 29.74 1007 10 16 0.00 0.00
4:24 am 04:24 Clear with Thunderstorms 75 23.9 42 5.6 31 31 NNE 22 35 29.80 1009 10 16 0.00 0.00
4:37 am 04:37 Partly Cloudy 74 23.3 49 9.4 41 41 N 22 35 29.80 1009 10 16 0.00 0.00
4:53 am 04:53 Mostly Clear 73 22.8 55 12.8 53 53 N 26 43 29.80 1009 8 13 0.00 0.00
5:53 am 05:53 Clear 66 18.9 51 10.6 59 59 N 22 35 29.84 1011 9 14 0.00 0.00
6:53 am 06:53 Sunny 63 17.2 48 8.9 58 58 N 22 35 29.88 1012 10 16 0.00 0.00
7:53 am 07:53 Sunny 64 17.8 48 8.9 56 56 NNE 21 33 29.92 1013 10 16 0.00 0.00
8:53 am 08:53 Sunny 67 19.4 49 9.4 53 53 N 16 26 29.99 1016 10 16 0.00 0.00
9:53 am 09:53 Sunny 69 20.6 49 9.4 49 49 NNE 17 28 30.02 1017 10 16 0.00 0.00
10:53 am 10:53 Sunny 74 23.3 48 8.9 40 40 NNE 15 24 30.02 1017 10 16 0.00 0.00
11:53 am 11:53 Sunny 78 25.6 48 8.9 35 35 NE 17 28 29.99 1016 10 16 0.00 0.00
12:53 pm 12:53 Sunny 81 27.2 46 7.8 29 29 NNE 15 24 29.97 1015 10 16 0.00 0.00
1:53 pm 13:53 Sunny 85 29.4 45 7.2 25 25 NNE 14 22 29.94 1014 10 16 0.00 0.00
2:53 pm 14:53 Sunny 87 30.6 44 6.7 22 22 NE 15 24 29.91 1013 10 16 0.00 0.00
3:53 pm 15:53 Sunny 88 31.1 44 6.7 22 22 E 15 24 29.89 1012 10 16 0.00 0.00
4:53 pm 16:53 Sunny 89 31.7 44 6.7 21 21 ENE 17 28 29.88 1012 10 16 0.00 0.00
5:53 pm 17:53 Sunny 88 31.1 44 6.7 22 22 E 10 17 29.86 1011 10 16 0.00 0.00
6:40 pm 18:40 Sunny 88 31.1 44 6.7 22 22 ENE 8 13 29.74 1007 10 16 0.00 0.00
6:53 pm 18:53 Sunny 88 31.1 43 6.1 21 21 ENE 13 20 29.85 1011 10 16 0.00 0.00
7:53 pm 19:53 Sunny 84 28.9 45 7.2 25 25 E 13 20 29.88 1012 10 16 0.00 0.00
8:53 pm 20:53 Clear 81 27.2 47 8.3 30 30 ESE 16 26 29.91 1013 10 16 0.00 0.00
9:53 pm 21:53 Clear 77 25 47 8.3 35 35 ESE 13 20 29.93 1013 10 16 0.00 0.00
10:53 pm 22:53 Clear 75 23.9 46 7.8 36 36 E 7 11 29.93 1013 10 16 0.00 0.00
11:53 pm 23:53 Clear 70 21.1 47 8.3 44 44 E 5 7 29.94 1014 10 16 0.00 0.00

Powered by AerisWeather